{"data":{"norad_id":69001,"intl_designator":"2026-100X","name":"CAS500-2 RIDESHARE OBJE*","alt_names":[],"object_type":"PAYLOAD","status":"ACTIVE","operator":null,"country":"TBD","launch_date":"2026-05-03","launch_site_code":"AFWTR","launch_vehicle":null,"mission":null,"orbit_class":"UNKNOWN","rcs_meters":null,"size_class":null,"mass_kg":null,"dimensions":null,"purposes":[],"wikipedia_slug":null,"has_3d_model":false,"image_url":null,"decayed_at":null,"tle_current":{"epoch":"2026-05-25T00:00:02.000160Z","epoch_age_seconds":68427,"freshness":"FRESH","line1":"1 69001U 26100X   26145.00002315  .00026203  00000+0  26465-2 0  9991","line2":"2 69001  97.7375  42.8657 0002978 205.4679 114.8982 14.91010040  1304","mean_motion":14.9101004,"eccentricity":0.0002978,"inclination_deg":97.7375,"raan_deg":42.8657,"arg_perigee_deg":205.4679,"mean_anomaly_deg":114.8982,"bstar":0.0026465,"rev_number":130,"period_min":96.57882652487,"perigee_km":592.70828597849,"apogee_km":596.86135821573,"semimajor_km":6972.9218220971,"source":"CELESTRAK","updated_at":"2026-05-25T13:38:09.035853Z"}}}